Location: Maynard F. Jordan Observatory
(44.9000°N, 68.6700°W)
Time: 05:49:16
(UTC-04:00)

Cosmos 2297 Rocket - Visible Passes

Search period start: 02 July 2015 00:00
Search period end: 12 July 2015 00:00
Orbit: 839 x 845 km, 71.0° (Epoch: 01 July)

Date Brightness Start Highest point End Pass type
(mag) Time Alt. Az. Time Alt. Az. Time Alt. Az.
02 Jul 3.7 00:36:27 20° ESE 00:37:28 21° ESE 00:41:42 10° NE visible
02 Jul 2.5 02:18:15 29° SW 02:21:05 61° WNW 02:26:43 10° NNE visible
02 Jul 4.4 04:03:46 10° WNW 04:06:29 13° NW 04:09:00 10° N visible
03 Jul 3.7 00:21:38 20° ESE 00:22:25 20° ESE 00:26:32 10° NE visible
03 Jul 2.4 02:03:26 32° SW 02:06:01 64° WNW 02:11:40 10° NNE visible
03 Jul 4.4 03:48:28 10° WNW 03:51:22 14° NW 03:54:04 10° N visible
04 Jul 3.8 00:06:48 19° ESE 00:07:23 19° E 00:11:23 10° NE visible
04 Jul 2.3 01:48:36 35° SW 01:50:57 67° WNW 01:56:37 10° NNE visible
04 Jul 4.4 03:33:11 10° WNW 03:36:15 14° NW 03:39:07 10° N visible
04 Jul 3.8 23:51:57 18° ESE 23:52:22 18° E 23:56:12 10° ENE visible
05 Jul 2.3 01:33:44 39° SW 01:35:53 70° WNW 01:41:34 10° NNE visible
05 Jul 4.4 03:17:55 10° WNW 03:21:08 15° NW 03:24:10 10° N visible
05 Jul 3.9 23:37:03 17° ESE 23:37:20 17° E 23:41:02 10° ENE visible
06 Jul 2.2 01:18:50 41° SW 01:20:49 74° WNW 01:26:31 10° NNE visible
06 Jul 4.4 03:02:39 10° WNW 03:06:01 15° NW 03:09:12 10° N visible
06 Jul 3.9 23:22:07 16° ESE 23:22:19 16° E 23:25:49 10° ENE visible
07 Jul 2.2 01:03:54 44° SW 01:05:46 77° WNW 01:11:28 10° NNE visible
07 Jul 4.4 02:47:25 10° W 02:50:54 16° NW 02:54:14 10° N visible
07 Jul 3.9 23:07:09 15° E 23:07:17 15° E 23:10:37 10° ENE visible
08 Jul 2.2 00:48:55 46° SW 00:50:42 81° WNW 00:56:25 10° NNE visible
08 Jul 4.4 02:32:10 10° W 02:35:47 17° NW 02:39:15 10° N visible
08 Jul 4.0 22:52:08 15° E 22:52:16 15° E 22:55:22 10° ENE visible
09 Jul 2.1 00:33:54 47° SSW 00:35:39 84° WNW 00:41:22 10° NNE visible
09 Jul 4.4 02:16:56 10° W 02:20:41 17° NW 02:24:16 10° N visible
09 Jul 4.0 22:37:04 14° E 22:37:15 14° E 22:40:08 10° ENE visible
10 Jul 2.1 00:18:51 47° SSW 00:20:35 88° WNW 00:26:18 10° NNE visible
10 Jul 4.4 02:01:43 10° W 02:05:34 18° NW 02:09:17 10° N visible
10 Jul 4.0 22:21:58 13° E 22:22:13 13° E 22:24:50 10° ENE visible
11 Jul 2.1 00:03:44 46° SSW 00:05:32 88° ESE 00:11:15 10° NNE visible
11 Jul 4.4 01:46:30 10° W 01:50:28 19° NW 01:54:18 10° N visible
11 Jul 4.1 22:06:48 12° ESE 22:07:12 12° E 22:09:30 10° ENE visible
11 Jul 2.1 23:48:34 44° SSW 23:50:29 84° ESE 23:56:12 10° NNE visible
